Location: Waco, TX
(31.5480°N, 97.1670°W)
Time: 09:21:45
(UTC-05:00)

ISS - Pass Details

Date: 19 May 2018
Orbit: 402 x 406 km, 51.6° (Epoch: 19 June)

Event Time Altitude Azimuth Distance (km) Brightness Sun altitude
Rises 21:24:08 0° 202° (SSW) 2,305 -0.1 -12.6°
Reaches altitude 10° 21:26:23 10° 190° (S) 1,448 -1.3 -13.0°
Maximum altitude 21:29:12 27° 129° (SE) 799 -2.9 -13.5°
Enters shadow 21:29:34 27° 116° (ESE) 815 -2.9 -13.6°
Drops below altitude 10° 21:32:02 10° 69° (ENE) 1,453 - -14.0°
Sets 21:34:17 0° 57° (ENE) 2,314 - -14.4°
